Location: Tel Aviv
(32.0670°N, 34.7670°E)
Time: 12:09:08
(UTC+02:00)

Envisat - Pass Details

Date: 02 December 2021
Orbit: 764 x 766 km, 98.2° (Epoch: 19 January)

Event Time Altitude Azimuth Distance (km) Brightness Sun altitude
Rises 03:50:06 0° 26° (NNE) 3,234 6.5 -32.1°
Reaches altitude 10° 03:52:42 10° 37° (NE) 2,304 5.8 -31.5°
Maximum altitude 03:57:04 29° 97° (E) 1,388 4.9 -30.6°
Drops below altitude 10° 04:01:24 10° 156° (SSE) 2,291 5.8 -29.7°
Sets 04:03:58 0° 168° (SSE) 3,213 6.5 -29.2°
